Location: Bacea
(45.9500°N, 22.6667°E)
Time: 06:34:23
(UTC+00:00)

Cosmos 1953 - Pass Details

Date: 07 June 2022
Orbit: 533 x 555 km, 82.5° (Epoch: 03 July)

Event Time Altitude Azimuth Distance (km) Brightness Sun altitude
Rises 20:50:14 0° 359° (N) 2,709 7.1 -17.7°
Reaches altitude 10° 20:52:34 10° 9° (N) 1,808 5.8 -17.9°
Maximum altitude 20:56:11 33° 75° (ENE) 915 3.3 -18.1°
Enters shadow 20:57:09 29° 105° (ESE) 1,004 3.3 -18.2°
